This demonstration page uses our WeatherBlox Daily Observations layout. Learn more.

Left ArrowRight Arrow

Hourly Observations for August 7, 2015

Temp ( °F °C ) Dew Point ( °F °C ) Humidity (%) Winds ( mph kmh ) Pressure ( in mb ) Visibility ( mi km ) Precip ( " mm )
12:54 am 00:54 Clear with Mist and Fog 71 21.7 68 20 90 90 S 3 6 29.85 1011 6 9.65604 0 0
1:54 am 01:54 Clear 71 21.7 68 20 90 90 Calm 29.84 1011 7 11.26538 0 0
2:54 am 02:54 Clear with Mist and Fog 69 20.6 68 20 96 96 S 3 6 29.83 1010 6 9.65604 0 0
3:54 am 03:54 Clear 70 21.1 68 20 93 93 Calm 29.83 1010 7 11.26538 0 0
4:54 am 04:54 Clear with Mist and Fog 69 20.6 67 19.4 93 93 Calm 29.84 1010 6 9.65604 0 0
5:54 am 05:54 Clear with Mist and Fog 70 21.1 67 19.4 90 90 WSW 5 7 29.84 1011 6 9.65604 0 0
6:54 am 06:54 Sunny with Mist and Fog 69 20.6 67 19.4 93 93 WSW 6 9 29.85 1011 5 8.0467 0 0
7:54 am 07:54 Sunny with Mist and Fog 72 22.2 68 20 87 87 Calm 29.86 1011 5 8.0467 0 0
8:54 am 08:54 Hazy 76 24.4 70 21.1 82 82 NNW 6 9 29.89 1012 6 9.65604 0 0
9:54 am 09:54 Sunny 80 26.7 70 21.1 71 71 Calm 29.89 1012 8 12.87472 0 0
10:54 am 10:54 Sunny 84 28.9 70 21.1 63 63 NNW 5 7 29.88 1012 10 16.0934 0 0
11:54 am 11:54 Sunny 87 30.6 69 20.6 55 55 VRB 6 9 29.88 1012 10 16.0934 0 0
12:54 pm 12:54 Sunny 92 33.3 60 15.6 34 34 NE 6 9 29.85 1011 10 16.0934 0 0
1:54 pm 13:54 Sunny 91 32.8 62 16.7 38 38 VRB 3 6 29.85 1011 10 16.0934 0 0
2:54 pm 14:54 Sunny 91 32.8 64 17.8 41 41 VRB 6 9 29.84 1011 10 16.0934 0 0
3:54 pm 15:54 Sunny 93 33.9 66 18.9 41 41 ESE 8 13 29.84 1010 10 16.0934 0 0
4:54 pm 16:54 Sunny 93 33.9 65 18.3 40 40 SE 7 11 29.83 1010 10 16.0934 0 0
5:54 pm 17:54 Sunny 90 32.2 66 18.9 45 45 SSE 7 11 29.82 1010 10 16.0934 0 0
6:54 pm 18:54 Sunny 89 31.7 67 19.4 48 48 ESE 10 17 29.81 1010 10 16.0934 0 0
7:54 pm 19:54 Sunny 86 30 69 20.6 57 57 E 10 17 29.81 1010 10 16.0934 0 0
8:54 pm 20:54 Clear 83 28.3 68 20 61 61 SSE 6 9 29.84 1010 10 16.0934 0 0
9:54 pm 21:54 Mostly Clear 82 27.8 70 21.1 67 67 ESE 6 9 29.81 1010 10 16.0934 0 0
10:54 pm 22:54 Mostly Clear 81 27.2 70 21.1 69 69 ESE 8 13 29.82 1010 10 16.0934 0 0
11:54 pm 23:54 Clear 80 26.7 70 21.1 71 71 E 9 15 29.81 1010 10 16.0934 0 0.0254

Powered by AerisWeather